When you browse on this site, cookies collect data to enhance your experience and personalize the content and advertising you see.
Visit our Privacy Policy to learn more. By continuing to use the site, you agree to this use of cookies and data.
  • In Hungary
  • List of Countries
  • For 7 days
  • Water Temperature
  • Weather Map
  • News
  • Weather Widgets
  • user-avatar
    Login

    Hourly Weather Kaplany

    Today, 13 December, Friday

    Time Temperature Precipitation Wind Pressure Humidity
    00:00 -2°C° 0 mm 6 mps 756 mmHg 90%
    01:00 -2°C° 0 mm 7 mps 756 mmHg 90%
    02:00 -2°C° 0 mm 7 mps 755 mmHg 90%
    03:00 -2°C° 0 mm 7 mps 756 mmHg 87%
    04:00 -2°C° 0 mm 7 mps 755 mmHg 86%
    05:00 -2°C° 0 mm 7 mps 755 mmHg 86%
    06:00 -2°C° 0 mm 7 mps 754 mmHg 85%
    07:00 -2°C° 0 mm 8 mps 754 mmHg 86%
    08:00 -2°C° 0 mm 8 mps 754 mmHg 86%
    09:00 -3°C° 0 mm 9 mps 755 mmHg 86%
    10:00 -3°C° 0 mm 9 mps 754 mmHg 83%
    11:00 -1°C° 0 mm 9 mps 754 mmHg 80%
    12:00 -1°C° 0 mm 9 mps 754 mmHg 78%
    13:00 -1°C° 0 mm 9 mps 754 mmHg 77%
    14:00 -1°C° 0 mm 9 mps 753 mmHg 77%
    15:00 -1°C° 0 mm 9 mps 753 mmHg 78%
    16:00 0°C° 0 mm 9 mps 753 mmHg 78%
    17:00 0°C° 0 mm 8 mps 753 mmHg 78%
    18:00 0°C° 0 mm 8 mps 753 mmHg 78%
    19:00 0°C° 0 mm 8 mps 753 mmHg 79%
    20:00 0°C° 0 mm 8 mps 753 mmHg 81%
    21:00 0°C° 0 mm 8 mps 752 mmHg 82%
    22:00 0°C° 0 mm 8 mps 752 mmHg 83%
    23:00 0°C° 0 mm 8 mps 752 mmHg 84%

    Tomorrow, 14 December, Saturday

    Time Temperature Precipitation Wind Pressure Humidity
    00:00 -1°C° 0 mm 8 mps 752 mmHg 85%
    01:00 -1°C° 0.1 mm 8 mps 752 mmHg 86%
    02:00 0°C° 0.1 mm 8 mps 752 mmHg 87%
    03:00 0°C° 0.1 mm 8 mps 752 mmHg 87%
    04:00 0°C° 0.6 mm 8 mps 752 mmHg 90%
    05:00 0°C° 0.6 mm 8 mps 751 mmHg 92%
    06:00 0°C° 0.6 mm 7 mps 751 mmHg 94%
    07:00 0°C° 0.3 mm 7 mps 751 mmHg 92%
    08:00 0°C° 0.3 mm 7 mps 752 mmHg 91%
    09:00 +2°C° 0.3 mm 7 mps 752 mmHg 90%
    10:00 +2°C° 0 mm 7 mps 752 mmHg 88%
    11:00 +3°C° 0 mm 6 mps 752 mmHg 85%
    12:00 +4°C° 0 mm 6 mps 752 mmHg 82%
    13:00 +4°C° 0 mm 6 mps 752 mmHg 80%
    14:00 +5°C° 0 mm 6 mps 752 mmHg 78%
    15:00 +5°C° 0 mm 6 mps 752 mmHg 76%
    16:00 +5°C° 0.8 mm 6 mps 752 mmHg 82%
    17:00 +5°C° 0.8 mm 7 mps 752 mmHg 88%
    18:00 +5°C° 0.8 mm 7 mps 752 mmHg 93%
    19:00 +5°C° 0.7 mm 7 mps 753 mmHg 93%
    20:00 +5°C° 0.7 mm 6 mps 753 mmHg 93%
    21:00 +5°C° 0.7 mm 6 mps 753 mmHg 92%
    22:00 +6°C° 0 mm 5 mps 753 mmHg 91%
    23:00 +5°C° 0 mm 5 mps 753 mmHg 90%

    Day after tomorrow, 15 December, Sunday

    Time Temperature Precipitation Wind Pressure Humidity
    00:00 +5°C° 0 mm 4 mps 753 mmHg 89%
    01:00 +5°C° 0 mm 4 mps 753 mmHg 90%
    02:00 +4°C° 0 mm 4 mps 753 mmHg 90%
    03:00 +4°C° 0 mm 4 mps 754 mmHg 90%
    04:00 +4°C° 0 mm 4 mps 753 mmHg 90%
    05:00 +4°C° 0 mm 4 mps 753 mmHg 91%
    06:00 +3°C° 0 mm 3 mps 753 mmHg 91%
    07:00 +3°C° 0 mm 3 mps 754 mmHg 91%
    08:00 +3°C° 0 mm 3 mps 754 mmHg 91%
    09:00 +3°C° 0 mm 3 mps 754 mmHg 91%
    10:00 +5°C° 0 mm 4 mps 754 mmHg 86%
    11:00 +6°C° 0 mm 4 mps 754 mmHg 82%
    12:00 +7°C° 0 mm 4 mps 754 mmHg 78%
    13:00 +7°C° 0 mm 4 mps 754 mmHg 77%
    14:00 +8°C° 0 mm 3 mps 754 mmHg 77%
    15:00 +8°C° 0 mm 3 mps 754 mmHg 76%
    16:00 +8°C° 0 mm 3 mps 755 mmHg 79%
    17:00 +7°C° 0 mm 2 mps 755 mmHg 81%
    18:00 +7°C° 0 mm 2 mps 755 mmHg 83%
    19:00 +7°C° 0.2 mm 2 mps 756 mmHg 86%
    20:00 +7°C° 0.2 mm 2 mps 756 mmHg 89%
    21:00 +7°C° 0.2 mm 2 mps 756 mmHg 92%
    22:00 +7°C° 0 mm 2 mps 757 mmHg 93%
    23:00 +7°C° 0 mm 3 mps 757 mmHg 94%

    16 December, Monday

    Time Temperature Precipitation Wind Pressure Humidity
    00:00 +7°C° 0 mm 3 mps 757 mmHg 95%
    01:00 +7°C° 0 mm 3 mps 758 mmHg 95%
    02:00 +5°C° 0 mm 3 mps 758 mmHg 94%
    03:00 +5°C° 0 mm 3 mps 759 mmHg 94%
    04:00 +5°C° 0 mm 3 mps 759 mmHg 93%
    05:00 +6°C° 0 mm 4 mps 760 mmHg 93%
    06:00 +6°C° 0 mm 4 mps 760 mmHg 92%
    07:00 +5°C° 0 mm 4 mps 761 mmHg 91%
    08:00 +5°C° 0 mm 4 mps 761 mmHg 90%
    09:00 +5°C° 0 mm 4 mps 762 mmHg 89%
    10:00 +5°C° 0 mm 4 mps 762 mmHg 84%
    11:00 +7°C° 0 mm 3 mps 763 mmHg 78%
    12:00 +8°C° 0 mm 3 mps 763 mmHg 72%
    13:00 +8°C° 0 mm 3 mps 763 mmHg 67%
    14:00 +8°C° 0 mm 3 mps 763 mmHg 63%
    15:00 +8°C° 0 mm 3 mps 763 mmHg 58%
    16:00 +7°C° 0 mm 2 mps 763 mmHg 61%
    17:00 +6°C° 0 mm 2 mps 764 mmHg 64%
    18:00 +7°C° 0 mm 1 mps 764 mmHg 67%
    19:00 +6°C° 0 mm 1 mps 764 mmHg 68%
    20:00 +6°C° 0 mm 1 mps 764 mmHg 68%
    21:00 +6°C° 0 mm 1 mps 764 mmHg 68%
    22:00 +6°C° 0 mm 1 mps 765 mmHg 68%
    23:00 +6°C° 0 mm 1 mps 765 mmHg 68%

    17 December, Tuesday

    Time Temperature Precipitation Wind Pressure Humidity
    00:00 +5°C° 0 mm 2 mps 765 mmHg 67%
    01:00 +5°C° 0 mm 2 mps 765 mmHg 67%
    02:00 +6°C° 0 mm 1 mps 765 mmHg 67%
    03:00 +6°C° 0 mm 1 mps 765 mmHg 67%
    04:00 +5°C° 0 mm 1 mps 765 mmHg 67%
    05:00 +5°C° 0 mm 1 mps 765 mmHg 67%
    06:00 +5°C° 0 mm 1 mps 765 mmHg 67%
    07:00 +5°C° 0 mm 1 mps 765 mmHg 68%
    08:00 +5°C° 0 mm 1 mps 765 mmHg 68%
    09:00 +5°C° 0 mm 1 mps 765 mmHg 68%
    10:00 +5°C° 0 mm 2 mps 765 mmHg 66%
    11:00 +6°C° 0 mm 2 mps 765 mmHg 63%
    12:00 +7°C° 0 mm 3 mps 765 mmHg 60%
    13:00 +7°C° 0 mm 3 mps 764 mmHg 61%
    14:00 +7°C° 0 mm 3 mps 764 mmHg 62%
    15:00 +7°C° 0 mm 3 mps 764 mmHg 63%
    16:00 +7°C° 0 mm 3 mps 764 mmHg 69%
    17:00 +5°C° 0 mm 3 mps 764 mmHg 74%
    18:00 +4°C° 0 mm 3 mps 764 mmHg 80%
    19:00 +4°C° 0 mm 3 mps 764 mmHg 83%
    20:00 +3°C° 0 mm 3 mps 764 mmHg 86%
    21:00 +3°C° 0 mm 3 mps 764 mmHg 90%
    22:00 +4°C° 0 mm 2 mps 764 mmHg 90%
    23:00 +4°C° 0 mm 2 mps 764 mmHg 90%

    18 December, Wednesday

    Time Temperature Precipitation Wind Pressure Humidity
    00:00 +4°C° 0 mm 2 mps 764 mmHg 90%
    01:00 +4°C° 0 mm 2 mps 764 mmHg 89%
    02:00 +4°C° 0 mm 2 mps 763 mmHg 89%
    03:00 +4°C° 0 mm 2 mps 763 mmHg 88%
    04:00 +4°C° 0 mm 2 mps 763 mmHg 88%
    05:00 +4°C° 0 mm 2 mps 763 mmHg 88%
    06:00 +4°C° 0 mm 2 mps 763 mmHg 88%
    07:00 +4°C° 0 mm 2 mps 763 mmHg 88%
    08:00 +3°C° 0 mm 3 mps 763 mmHg 89%
    09:00 +3°C° 0 mm 3 mps 763 mmHg 89%
    10:00 +4°C° 0 mm 3 mps 763 mmHg 84%
    11:00 +6°C° 0 mm 4 mps 763 mmHg 79%
    12:00 +7°C° 0 mm 4 mps 763 mmHg 75%
    13:00 +7°C° 0 mm 4 mps 762 mmHg 74%
    14:00 +8°C° 0 mm 4 mps 762 mmHg 73%
    15:00 +8°C° 0 mm 4 mps 761 mmHg 72%
    16:00 +7°C° 0 mm 4 mps 762 mmHg 77%
    17:00 +6°C° 0 mm 4 mps 762 mmHg 82%
    18:00 +5°C° 0 mm 4 mps 762 mmHg 86%
    19:00 +5°C° 0 mm 4 mps 762 mmHg 85%
    20:00 +5°C° 0 mm 4 mps 761 mmHg 83%
    21:00 +5°C° 0 mm 4 mps 761 mmHg 82%
    22:00 +4°C° 0 mm 4 mps 761 mmHg 80%
    23:00 +4°C° 0 mm 4 mps 761 mmHg 78%
    Show more